Flag for Falkland Islands Weather past 2 weeks in Stanley, Falkland Islands

Now
41 °F

Partly cloudy.


Feels Like: 36 °F
Forecast: 42 / 50 °F
Wind: 8 mph from Northeast

Location: Mount Pleasant Airport

Current Time: Dec 21, 2014 at 12:05:16 AM

Latest Report: Dec 20, 2014 at 10:50 PM


Visibility: N/A

Pressure: 29.53 "Hg

Humidity: 93%

Dew point: 39 °F

Location of StanleyLocation

Historic Weather in Stanley — Graph

°F

Stanley temperature yesterday

Maximum temperature yesterday: 48 °F (at 11:50 AM)
Minimum temperature yesterday: 36 °F (at 12:50 AM)
Average temperature yesterday: 43 °F

Past Weeks' High & Low Weather Summary

 TemperatureHumidityPressure
High66 °F (Dec 7, 10:50 AM)100% (Dec 9, 9:50 PM)29.80 "Hg (Dec 9, 9:50 PM)
Low36 °F (Dec 13, 4:50 AM)26% (Dec 7, 1:50 PM)28.65 "Hg (Dec 18, 6:50 PM)
Average49 °F70%29.37 "Hg
* Reported Dec 5 10:50 PM — Dec 20 10:50 PM, Stanley, Weather by CustomWeather, © 2014

Note: Actual official high and low records may vary slightly from our data, if they occured in-between our weather recording intervals... More about our weather records

Advertising

Stanley weather history for previous 24 hours

 ConditionsComfort  
Time TempWeatherWind HumidityBarometerVisibility
10:50 PM
Dec 20
41 °FPartly cloudy.8 mph93%29.53 "HgN/A
9:50 PM41 °FRain showers. Partly cloudy.9 mph93%29.50 "Hg3 mi
8:50 PM43 °FPartly sunny.9 mph81%29.50 "HgN/A
7:50 PM43 °FPartly sunny.7 mph81%29.47 "HgN/A
6:50 PM45 °FSprinkles. Partly sunny.8 mph71%29.45 "HgN/A
5:50 PM48 °FScattered clouds.3 mph62%29.42 "HgN/A
4:50 PM46 °FScattered clouds.9 mph62%29.42 "HgN/A
3:50 PM48 °FPassing clouds.9 mph66%29.39 "HgN/A
2:50 PM45 °FSprinkles. Scattered clouds.9 mph76%29.39 "HgN/A
1:50 PM45 °FBroken clouds.12 mph66%29.36 "HgN/A
12:50 PM45 °FPartly sunny.13 mph71%29.33 "HgN/A
11:50 AM48 °FPartly sunny.15 mph54%29.30 "HgN/A
10:50 AM45 °FPartly sunny.15 mph61%29.27 "HgN/A
9:50 AM43 °FSprinkles. Partly sunny.18 mph76%29.27 "HgN/A
8:50 AM43 °FPartly sunny.14 mph71%29.24 "HgN/A
7:50 AM43 °FPartly sunny.12 mph61%29.18 "HgN/A
6:50 AM41 °FPartly sunny.14 mph70%29.18 "HgN/A
5:50 AM39 °FPartly sunny.12 mph75%29.12 "HgN/A
4:50 AM39 °FPartly sunny.9 mph81%29.09 "HgN/A
3:50 AM39 °FLight rain. Passing clouds.5 mph93%29.06 "HgN/A
2:50 AM37 °FPassing clouds.6 mph100%29.03 "HgN/A
1:50 AM37 °FPassing clouds.8 mph93%29.03 "HgN/A
12:50 AM36 °FPassing clouds.7 mph100%29.00 "HgN/A
Weather by CustomWeather, © 2014

See weather overviewHow to use our weather pages